| time (UTC) | temp F | wind direction | speed MPH | gust MPH | rain 1hr in | rain 24hr in | rain mn in | humidity % | barometer mb |
| 20260507002529 | 64 | 254 | 5.0 | 11.0 | 0.00 | 0.00 | 0.00 | 73 | 1017.4 |
| 20260507002029 | 65 | 237 | 5.0 | 11.0 | 0.00 | 0.00 | 0.00 | 72 | 1017.3 |
| 20260507001546 | 65 | 286 | 4.0 | 11.0 | 0.00 | 0.00 | 0.00 | 72 | 1017.5 |
| 20260507001028 | 66 | 212 | 4.0 | 10.0 | 0.00 | 0.00 | 0.00 | 72 | 1017.4 |
| 20260507000529 | 66 | 244 | 5.0 | 10.0 | 0.00 | 0.00 | 0.00 | 71 | 1017.4 |
| 20260507000045 | 66 | 249 | 5.0 | 10.0 | 0.00 | 0.00 | 0.00 | 70 | 1017.4 |
| 20260506235530 | 67 | 277 | 4.0 | 11.0 | 0.00 | 0.00 | 0.00 | 70 | 1017.5 |
| 20260506235029 | 67 | 300 | 4.0 | 11.0 | 0.00 | 0.00 | 0.00 | 69 | 1017.6 |
| 20260506234553 | 67 | 292 | 3.0 | 10.0 | 0.00 | 0.00 | 0.00 | 68 | 1017.5 |
| 20260506234031 | 67 | 280 | 4.0 | 10.0 | 0.00 | 0.00 | 0.00 | 69 | 1017.5 |
| 20260506233530 | 67 | 306 | 3.0 | 10.0 | 0.00 | 0.00 | 0.00 | 69 | 1017.5 |
| 20260506233049 | 67 | 271 | 4.0 | 10.0 | 0.00 | 0.00 | 0.00 | 68 | 1017.6 |
| 20260506232529 | 67 | 219 | 3.0 | 10.0 | 0.00 | 0.00 | 0.00 | 70 | 1017.6 |
| 20260506232029 | 67 | 294 | 3.0 | 12.0 | 0.00 | 0.00 | 0.00 | 70 | 1017.7 |
| 20260506231552 | 66 | 297 | 5.0 | 12.0 | 0.00 | 0.00 | 0.00 | 71 | 1017.7 |
| 20260506231029 | 66 | 300 | 5.0 | 11.0 | 0.00 | 0.00 | 0.00 | 71 | 1017.7 |
| 20260506230533 | 67 | 293 | 5.0 | 11.0 | 0.00 | 0.00 | 0.00 | 69 | 1017.8 |
| 20260506230038 | 67 | 259 | 5.0 | 11.0 | 0.00 | 0.00 | 0.00 | 69 | 1017.7 |
| 20260506225529 | 68 | 249 | 4.0 | 11.0 | 0.00 | 0.00 | 0.00 | 70 | 1017.9 |
| 20260506225032 | 68 | 298 | 4.0 | 11.0 | 0.00 | 0.00 | 0.00 | 69 | 1018.0 |
| 20260506224541 | 68 | 307 | 5.0 | 11.0 | 0.00 | 0.00 | 0.00 | 69 | 1018.0 |
| 20260506224029 | 67 | 299 | 5.0 | 11.0 | 0.00 | 0.00 | 0.00 | 68 | 1018.0 |
| 20260506223530 | 69 | 293 | 5.0 | 12.0 | 0.00 | 0.00 | 0.00 | 67 | 1018.0 |
| 20260506223044 | 69 | 259 | 4.0 | 12.0 | 0.00 | 0.00 | 0.00 | 68 | 1018.0 |
| 20260506222530 | 69 | 292 | 5.0 | 12.0 | 0.00 | 0.00 | 0.00 | 66 | 1017.9 |
| 20260506222030 | 69 | 224 | 3.0 | 11.0 | 0.00 | 0.00 | 0.00 | 67 | 1018.0 |
| 20260506221546 | 69 | 286 | 4.0 | 11.0 | 0.00 | 0.00 | 0.00 | 67 | 1017.9 |
| 20260506221029 | 69 | 296 | 5.0 | 11.0 | 0.00 | 0.00 | 0.00 | 67 | 1018.1 |
| 20260506220529 | 69 | 311 | 5.0 | 11.0 | 0.00 | 0.00 | 0.00 | 66 | 1018.2 |
| 20260506220048 | 69 | 285 | 3.0 | 8.0 | 0.00 | 0.00 | 0.00 | 67 | 1018.3 |
| 20260506215529 | 69 | 336 | 4.0 | 7.0 | 0.00 | 0.00 | 0.00 | 63 | 1018.3 |
| 20260506215029 | 69 | 42 | 3.0 | 10.0 | 0.00 | 0.00 | 0.00 | 62 | 1018.3 |
| 20260506214547 | 69 | 0 | 3.0 | 10.0 | 0.00 | 0.00 | 0.00 | 64 | 1018.2 |
| 20260506214032 | 69 | 352 | 4.0 | 10.0 | 0.00 | 0.00 | 0.00 | 63 | 1018.3 |
| 20260506213533 | 69 | 20 | 4.0 | 9.0 | 0.00 | 0.00 | 0.00 | 64 | 1018.3 |
| 20260506213040 | 69 | 339 | 3.0 | 8.0 | 0.00 | 0.00 | 0.00 | 64 | 1018.3 |
| 20260506212529 | 68 | 0 | 3.0 | 8.0 | 0.00 | 0.00 | 0.00 | 63 | 1018.4 |
| 20260506212029 | 68 | 35 | 4.0 | 9.0 | 0.00 | 0.00 | 0.00 | 64 | 1018.4 |
| 20260506211539 | 69 | 24 | 3.0 | 9.0 | 0.00 | 0.00 | 0.00 | 62 | 1018.5 |
| 20260506211029 | 69 | 314 | 2.0 | 10.0 | 0.00 | 0.00 | 0.00 | 62 | 1018.7 |
| 20260506210529 | 68 | 9 | 2.0 | 10.0 | 0.00 | 0.00 | 0.00 | 62 | 1018.6 |
| 20260506210038 | 68 | 46 | 4.0 | 10.0 | 0.00 | 0.00 | 0.00 | 62 | 1018.7 |
| 20260506205533 | 69 | 344 | 3.0 | 9.0 | 0.00 | 0.00 | 0.00 | 62 | 1018.6 |
| 20260506205029 | 67 | 31 | 3.0 | 10.0 | 0.00 | 0.00 | 0.00 | 65 | 1018.7 |
| 20260506204540 | 67 | 18 | 4.0 | 10.0 | 0.00 | 0.00 | 0.00 | 64 | 1018.8 |
| 20260506204028 | 67 | 30 | 5.0 | 9.0 | 0.00 | 0.00 | 0.00 | 62 | 1018.8 |
| 20260506203531 | 67 | 339 | 5.0 | 9.0 | 0.00 | 0.00 | 0.00 | 63 | 1018.9 |
| 20260506203044 | 67 | 305 | 3.0 | 8.0 | 0.00 | 0.00 | 0.00 | 63 | 1019.1 |
| 20260506202529 | 67 | 336 | 3.0 | 9.0 | 0.00 | 0.00 | 0.00 | 65 | 1019.0 |
| 20260506202029 | 67 | 33 | 2.0 | 9.0 | 0.00 | 0.00 | 0.00 | 65 | 1019.0 |
| 20260506201543 | 67 | 34 | 3.0 | 9.0 | 0.00 | 0.00 | 0.00 | 67 | 1019.1 |
| 20260506201028 | 66 | 25 | 4.0 | 9.0 | 0.00 | 0.00 | 0.00 | 66 | 1019.1 |
| 20260506200529 | 67 | 343 | 3.0 | 9.0 | 0.00 | 0.00 | 0.00 | 67 | 1019.1 |
| 20260506200041 | 66 | 347 | 2.0 | 8.0 | 0.00 | 0.00 | 0.00 | 67 | 1019.2 |
| 20260506195531 | 65 | 317 | 3.0 | 8.0 | 0.00 | 0.00 | 0.00 | 68 | 1019.2 |
| 20260506195029 | 65 | 42 | 4.0 | 8.0 | 0.00 | 0.00 | 0.00 | 69 | 1019.3 |
| 20260506194538 | 65 | 350 | 2.0 | 8.0 | 0.00 | 0.00 | 0.00 | 67 | 1019.3 |
| 20260506194112 | 64 | 288 | 3.0 | 10.0 | 0.00 | 0.00 | 0.00 | 70 | 1019.3 |
| 20260506193528 | 65 | 296 | 3.0 | 10.0 | 0.00 | 0.00 | 0.00 | 70 | 1019.4 |
| 20260506193045 | 65 | 352 | 4.0 | 8.0 | 0.00 | 0.00 | 0.00 | 70 | 1019.5 |
| 20260506192529 | 64 | 0 | 4.0 | 8.0 | 0.00 | 0.00 | 0.00 | 70 | 1019.5 |
| 20260506192031 | 65 | 344 | 3.0 | 8.0 | 0.00 | 0.00 | 0.00 | 69 | 1019.5 |
| 20260506191543 | 64 | 355 | 3.0 | 11.0 | 0.00 | 0.00 | 0.00 | 72 | 1019.5 |
| 20260506191030 | 63 | 334 | 5.0 | 11.0 | 0.00 | 0.00 | 0.00 | 72 | 1019.6 |
| 20260506190530 | 64 | 41 | 4.0 | 10.0 | 0.00 | 0.00 | 0.00 | 71 | 1019.6 |
| 20260506190046 | 63 | 331 | 4.0 | 10.0 | 0.00 | 0.00 | 0.00 | 71 | 1019.6 |
| 20260506185530 | 63 | 308 | 3.0 | 10.0 | 0.00 | 0.00 | 0.00 | 72 | 1019.6 |
| 20260506185029 | 63 | 352 | 4.0 | 10.0 | 0.00 | 0.00 | 0.00 | 72 | 1019.6 |
| 20260506184549 | 63 | 13 | 3.0 | 10.0 | 0.00 | 0.00 | 0.00 | 72 | 1019.6 |
| 20260506184030 | 63 | 5 | 4.0 | 10.0 | 0.00 | 0.00 | 0.00 | 72 | 1019.6 |
| 20260506183529 | 63 | 44 | 2.0 | 8.0 | 0.00 | 0.00 | 0.00 | 73 | 1019.7 |
| 20260506183038 | 63 | 18 | 3.0 | 8.0 | 0.00 | 0.00 | 0.00 | 71 | 1019.7 |
| 20260506182528 | 63 | 0 | 1.0 | 6.0 | 0.00 | 0.00 | 0.00 | 71 | 1019.7 |
| 20260506182029 | 62 | 28 | 2.0 | 7.0 | 0.00 | 0.00 | 0.00 | 72 | 1019.8 |
| 20260506181538 | 62 | 22 | 3.0 | 7.0 | 0.00 | 0.00 | 0.00 | 73 | 1019.8 |
| 20260506181029 | 62 | 360 | 2.0 | 9.0 | 0.00 | 0.00 | 0.00 | 74 | 1019.7 |
| 20260506180529 | 61 | 33 | 1.0 | 9.0 | 0.00 | 0.00 | 0.00 | 73 | 1019.7 |
| 20260506180048 | 60 | 19 | 4.0 | 9.0 | 0.00 | 0.00 | 0.00 | 74 | 1019.8 |
| 20260506175528 | 61 | 33 | 2.0 | 8.0 | 0.00 | 0.00 | 0.00 | 73 | 1019.7 |
| 20260506175029 | 61 | 30 | 3.0 | 8.0 | 0.00 | 0.00 | 0.00 | 74 | 1019.7 |
| 20260506174543 | 61 | 12 | 2.0 | 5.0 | 0.00 | 0.00 | 0.00 | 74 | 1019.7 |
| 20260506174032 | 60 | 36 | 2.0 | 5.0 | 0.00 | 0.00 | 0.00 | 74 | 1019.8 |
| 20260506173529 | 60 | 20 | 2.0 | 7.0 | 0.00 | 0.00 | 0.00 | 74 | 1019.8 |
| 20260506173121 | 61 | 32 | 2.0 | 7.0 | 0.00 | 0.00 | 0.00 | 74 | 1019.8 |
| 20260506172529 | 60 | 0 | 1.0 | 4.0 | 0.00 | 0.00 | 0.00 | 74 | 1019.8 |
| 20260506172030 | 61 | 5 | 1.0 | 4.0 | 0.00 | 0.00 | 0.00 | 75 | 1019.7 |
| 20260506171549 | 62 | 186 | 0.0 | 5.0 | 0.00 | 0.00 | 0.00 | 74 | 1019.8 |
| 20260506171031 | 61 | 0 | 0.0 | 5.0 | 0.00 | 0.00 | 0.00 | 77 | 1019.8 |
| 20260506170529 | 60 | 190 | 1.0 | 5.0 | 0.00 | 0.00 | 0.00 | 76 | 1019.9 |
| 20260506170042 | 60 | 0 | 0.0 | 0.0 | 0.00 | 0.00 | 0.00 | 78 | 1019.9 |
| 20260506165529 | 59 | 0 | 0.0 | 0.0 | 0.00 | 0.00 | 0.00 | 80 | 1019.8 |
| 20260506165029 | 58 | 0 | 0.0 | 0.0 | 0.00 | 0.00 | 0.00 | 80 | 1019.9 |
| 20260506164553 | 57 | 0 | 0.0 | 5.0 | 0.00 | 0.00 | 0.00 | 79 | 1019.8 |
| 20260506164029 | 57 | 0 | 0.0 | 5.0 | 0.00 | 0.00 | 0.00 | 81 | 1019.9 |
| 20260506163534 | 57 | 180 | 0.0 | 4.0 | 0.00 | 0.00 | 0.00 | 82 | 1019.9 |
| 20260506163044 | 56 | 0 | 0.0 | 4.0 | 0.00 | 0.00 | 0.00 | 82 | 1019.8 |
| 20260506162528 | 56 | 282 | 1.0 | 4.0 | 0.00 | 0.00 | 0.00 | 82 | 1019.8 |
| 20260506162033 | 56 | 0 | 0.0 | 2.0 | 0.00 | 0.00 | 0.00 | 82 | 1019.8 |
| 20260506161544 | 56 | 303 | 0.0 | 2.0 | 0.00 | 0.00 | 0.00 | 82 | 1019.9 |
| 20260506161029 | 56 | 0 | 0.0 | 3.0 | 0.00 | 0.00 | 0.00 | 82 | 1019.9 |
| 20260506160529 | 56 | 0 | 0.0 | 3.0 | 0.00 | 0.00 | 0.00 | 84 | 1019.9 |
| 20260506160045 | 55 | 0 | 0.0 | 4.0 | 0.00 | 0.00 | 0.00 | 83 | 1019.9 |
| 20260506155529 | 55 | 51 | 1.0 | 4.0 | 0.00 | 0.00 | 0.00 | 84 | 1019.9 |
| 20260506155029 | 55 | 309 | 1.0 | 3.0 | 0.00 | 0.00 | 0.00 | 84 | 1019.7 |
| 20260506154550 | 55 | 0 | 0.0 | 3.0 | 0.00 | 0.00 | 0.00 | 84 | 1019.8 |
| 20260506154031 | 55 | 0 | 0.0 | 4.0 | 0.00 | 0.00 | 0.00 | 85 | 1019.8 |
| 20260506153532 | 55 | 328 | 1.0 | 4.0 | 0.00 | 0.00 | 0.00 | 85 | 1019.8 |
| 20260506153043 | 54 | 319 | 1.0 | 3.0 | 0.00 | 0.00 | 0.00 | 85 | 1019.7 |
| 20260506152529 | 54 | 317 | 1.0 | 3.0 | 0.00 | 0.00 | 0.00 | 86 | 1019.7 |
| 20260506152029 | 54 | 316 | 1.0 | 4.0 | 0.00 | 0.00 | 0.00 | 86 | 1019.6 |
| 20260506151538 | 54 | 325 | 1.0 | 4.0 | 0.00 | 0.00 | 0.00 | 86 | 1019.7 |
| 20260506151030 | 54 | 290 | 0.0 | 0.0 | 0.00 | 0.00 | 0.00 | 87 | 1019.6 |
| 20260506150533 | 54 | 0 | 0.0 | 0.0 | 0.00 | 0.00 | 0.00 | 87 | 1019.6 |
| 20260506150046 | 54 | 0 | 0.0 | 0.0 | 0.00 | 0.00 | 0.00 | 88 | 1019.6 |
| 20260506145529 | 54 | 0 | 0.0 | 0.0 | 0.00 | 0.00 | 0.00 | 88 | 1019.6 |
| 20260506145029 | 54 | 0 | 0.0 | 0.0 | 0.00 | 0.00 | 0.00 | 88 | 1019.6 |
| 20260506144545 | 53 | 0 | 0.0 | 0.0 | 0.00 | 0.00 | 0.00 | 88 | 1019.6 |
| 20260506144029 | 53 | 0 | 0.0 | 0.0 | 0.00 | 0.00 | 0.00 | 88 | 1019.6 |
| 20260506143528 | 53 | 0 | 0.0 | 0.0 | 0.00 | 0.00 | 0.00 | 88 | 1019.7 |
| 20260506143044 | 53 | 0 | 0.0 | 0.0 | 0.00 | 0.00 | 0.00 | 89 | 1019.6 |
| 20260506142529 | 53 | 0 | 0.0 | 0.0 | 0.00 | 0.00 | 0.00 | 89 | 1019.5 |
| 20260506142029 | 53 | 0 | 0.0 | 0.0 | 0.00 | 0.00 | 0.00 | 89 | 1019.5 |
| 20260506141541 | 53 | 0 | 0.0 | 2.0 | 0.00 | 0.00 | 0.00 | 89 | 1019.4 |
| 20260506141029 | 53 | 0 | 0.0 | 2.0 | 0.00 | 0.00 | 0.00 | 89 | 1019.4 |
| 20260506140529 | 53 | 0 | 0.0 | 3.0 | 0.00 | 0.00 | 0.00 | 89 | 1019.3 |
| 20260506140048 | 53 | 0 | 0.0 | 3.0 | 0.00 | 0.00 | 0.00 | 89 | 1019.2 |
| 20260506135528 | 52 | 0 | 1.0 | 3.0 | 0.00 | 0.00 | 0.00 | 89 | 1019.2 |
| 20260506135028 | 52 | 295 | 1.0 | 4.0 | 0.00 | 0.00 | 0.00 | 89 | 1019.2 |
| 20260506134545 | 52 | 296 | 1.0 | 4.0 | 0.00 | 0.00 | 0.00 | 89 | 1019.1 |
| 20260506134029 | 52 | 298 | 1.0 | 4.0 | 0.00 | 0.00 | 0.00 | 89 | 1019.1 |
| 20260506133529 | 52 | 297 | 2.0 | 4.0 | 0.00 | 0.00 | 0.00 | 89 | 1019.1 |
| 20260506133046 | 52 | 290 | 1.0 | 3.0 | 0.00 | 0.00 | 0.00 | 89 | 1019.0 |
| 20260506132532 | 52 | 290 | 1.0 | 3.0 | 0.00 | 0.00 | 0.00 | 89 | 1018.9 |
| 20260506132032 | 52 | 288 | 1.0 | 3.0 | 0.00 | 0.00 | 0.00 | 89 | 1018.7 |
| 20260506131602 | 52 | 0 | 1.0 | 3.0 | 0.00 | 0.00 | 0.00 | 89 | 1018.7 |
| 20260506131029 | 52 | 286 | 1.0 | 3.0 | 0.00 | 0.00 | 0.00 | 89 | 1018.7 |
| 20260506130529 | 52 | 0 | 0.0 | 3.0 | 0.00 | 0.00 | 0.00 | 89 | 1018.8 |
| 20260506130059 | 52 | 284 | 1.0 | 3.0 | 0.00 | 0.00 | 0.00 | 90 | 1018.7 |
| 20260506125532 | 52 | 0 | 1.0 | 3.0 | 0.00 | 0.00 | 0.00 | 90 | 1018.8 |
| 20260506125033 | 52 | 0 | 0.0 | 4.0 | 0.00 | 0.00 | 0.00 | 90 | 1018.6 |
| 20260506124552 | 52 | 278 | 1.0 | 4.0 | 0.00 | 0.00 | 0.00 | 90 | 1018.5 |
| 20260506124029 | 52 | 281 | 2.0 | 4.0 | 0.00 | 0.00 | 0.00 | 90 | 1018.5 |
| 20260506123529 | 52 | 231 | 0.0 | 3.0 | 0.00 | 0.00 | 0.00 | 90 | 1018.6 |
| 20260506123040 | 52 | 0 | 0.0 | 2.0 | 0.00 | 0.00 | 0.00 | 90 | 1018.6 |
| 20260506122528 | 52 | 0 | 1.0 | 2.0 | 0.00 | 0.00 | 0.00 | 90 | 1018.6 |
| 20260506122028 | 52 | 0 | 0.0 | 0.0 | 0.00 | 0.00 | 0.00 | 90 | 1018.6 |
| 20260506121537 | 52 | 0 | 0.0 | 2.0 | 0.00 | 0.00 | 0.00 | 90 | 1018.5 |
| 20260506121029 | 51 | 0 | 0.0 | 2.0 | 0.00 | 0.00 | 0.00 | 90 | 1018.5 |
| 20260506120531 | 51 | 221 | 0.0 | 2.0 | 0.00 | 0.00 | 0.00 | 90 | 1018.5 |
| 20260506120045 | 51 | 0 | 0.0 | 0.0 | 0.00 | 0.00 | 0.00 | 90 | 1018.4 |
| 20260506115529 | 52 | 0 | 0.0 | 0.0 | 0.00 | 0.01 | 0.00 | 90 | 1018.4 |
| 20260506115028 | 52 | 0 | 0.0 | 3.0 | 0.00 | 0.01 | 0.00 | 90 | 1018.4 |
| 20260506114544 | 52 | 0 | 0.0 | 3.0 | 0.00 | 0.01 | 0.00 | 90 | 1018.3 |
| 20260506114028 | 52 | 219 | 1.0 | 4.0 | 0.00 | 0.01 | 0.00 | 89 | 1018.2 |
| 20260506113528 | 52 | 219 | 1.0 | 4.0 | 0.00 | 0.01 | 0.00 | 89 | 1018.3 |
| 20260506113052 | 52 | 219 | 1.0 | 4.0 | 0.00 | 0.01 | 0.00 | 89 | 1018.2 |
| 20260506112529 | 52 | 0 | 0.0 | 0.0 | 0.00 | 0.01 | 0.00 | 89 | 1018.3 |
| 20260506112029 | 52 | 0 | 0.0 | 0.0 | 0.00 | 0.01 | 0.00 | 89 | 1018.3 |
| 20260506111542 | 52 | 0 | 0.0 | 0.0 | 0.00 | 0.01 | 0.00 | 89 | 1018.3 |
| 20260506111029 | 53 | 0 | 0.0 | 0.0 | 0.00 | 0.01 | 0.00 | 90 | 1018.3 |
| 20260506110531 | 53 | 0 | 0.0 | 0.0 | 0.00 | 0.01 | 0.00 | 90 | 1018.2 |
| 20260506110047 | 53 | 0 | 0.0 | 0.0 | 0.00 | 0.01 | 0.00 | 90 | 1018.2 |
| 20260506105529 | 52 | 0 | 0.0 | 0.0 | 0.00 | 0.02 | 0.00 | 90 | 1018.2 |
| 20260506105031 | 52 | 0 | 0.0 | 0.0 | 0.00 | 0.02 | 0.00 | 90 | 1018.2 |
| 20260506104547 | 52 | 0 | 0.0 | 0.0 | 0.00 | 0.02 | 0.00 | 90 | 1018.1 |
| 20260506104028 | 52 | 0 | 0.0 | 0.0 | 0.00 | 0.02 | 0.00 | 90 | 1018.1 |
| 20260506103529 | 52 | 0 | 0.0 | 2.0 | 0.00 | 0.02 | 0.00 | 90 | 1018.1 |
| 20260506103050 | 52 | 0 | 0.0 | 3.0 | 0.00 | 0.02 | 0.00 | 90 | 1018.0 |
| 20260506102529 | 52 | 0 | 0.0 | 3.0 | 0.00 | 0.02 | 0.00 | 90 | 1018.0 |
| 20260506102029 | 52 | 219 | 1.0 | 3.0 | 0.00 | 0.02 | 0.00 | 90 | 1018.0 |
| 20260506101555 | 52 | 226 | 0.0 | 3.0 | 0.00 | 0.02 | 0.00 | 90 | 1017.9 |
| 20260506101028 | 52 | 226 | 0.0 | 3.0 | 0.00 | 0.02 | 0.00 | 90 | 1018.0 |
| 20260506100529 | 52 | 225 | 1.0 | 3.0 | 0.00 | 0.02 | 0.00 | 90 | 1018.0 |
| 20260506100101 | 52 | 227 | 0.0 | 3.0 | 0.00 | 0.02 | 0.00 | 90 | 1018.0 |
| 20260506095529 | 52 | 224 | 0.0 | 3.0 | 0.00 | 0.02 | 0.00 | 90 | 1018.0 |
| 20260506095033 | 52 | 0 | 0.0 | 3.0 | 0.00 | 0.02 | 0.00 | 90 | 1018.0 |
| 20260506094542 | 52 | 0 | 0.0 | 1.0 | 0.00 | 0.02 | 0.00 | 90 | 1018.0 |
| 20260506094029 | 53 | 0 | 0.0 | 1.0 | 0.00 | 0.02 | 0.00 | 90 | 1018.1 |
| 20260506093529 | 53 | 0 | 0.0 | 0.0 | 0.00 | 0.02 | 0.00 | 89 | 1018.0 |
| 20260506093043 | 53 | 0 | 0.0 | 2.0 | 0.00 | 0.02 | 0.00 | 89 | 1018.1 |
| 20260506092530 | 53 | 0 | 0.0 | 2.0 | 0.00 | 0.02 | 0.00 | 89 | 1018.1 |
| 20260506092029 | 53 | 212 | 0.0 | 3.0 | 0.00 | 0.02 | 0.00 | 89 | 1017.9 |
| 20260506091539 | 53 | 0 | 0.0 | 4.0 | 0.00 | 0.02 | 0.00 | 89 | 1017.9 |
| 20260506091032 | 53 | 211 | 2.0 | 4.0 | 0.00 | 0.02 | 0.00 | 89 | 1018.0 |
| 20260506090528 | 53 | 207 | 1.0 | 4.0 | 0.00 | 0.02 | 0.00 | 89 | 1018.0 |
| 20260506090046 | 53 | 0 | 0.0 | 3.0 | 0.00 | 0.02 | 0.00 | 89 | 1018.0 |
| 20260506085531 | 53 | 259 | 0.0 | 3.0 | 0.00 | 0.03 | 0.00 | 89 | 1018.0 |
| 20260506085028 | 53 | 252 | 0.0 | 3.0 | 0.00 | 0.03 | 0.00 | 89 | 1017.9 |
| 20260506084605 | 53 | 0 | 1.0 | 3.0 | 0.00 | 0.03 | 0.00 | 89 | 1018.0 |
| 20260506084029 | 53 | 190 | 0.0 | 3.0 | 0.00 | 0.03 | 0.00 | 89 | 1018.0 |
| 20260506083529 | 53 | 188 | 0.0 | 3.0 | 0.00 | 0.03 | 0.00 | 89 | 1017.9 |
| 20260506083044 | 53 | 0 | 0.0 | 4.0 | 0.00 | 0.03 | 0.00 | 89 | 1018.0 |
| 20260506082533 | 53 | 208 | 0.0 | 6.0 | 0.00 | 0.03 | 0.00 | 89 | 1018.0 |
| 20260506082033 | 53 | 198 | 1.0 | 6.0 | 0.00 | 0.03 | 0.00 | 89 | 1018.1 |
| 20260506081547 | 53 | 235 | 1.0 | 6.0 | 0.00 | 0.03 | 0.00 | 88 | 1018.0 |
| 20260506081030 | 54 | 223 | 3.0 | 6.0 | 0.00 | 0.03 | 0.00 | 89 | 1018.0 |
| 20260506080530 | 54 | 259 | 0.0 | 4.0 | 0.00 | 0.03 | 0.00 | 89 | 1018.1 |
| 20260506073048 | 54 | 234 | 1.0 | 8.0 | 0.00 | 0.03 | 0.00 | 89 | 1017.8 |
| 20260506072530 | 54 | 267 | 2.0 | 8.0 | 0.00 | 0.03 | 0.00 | 88 | 1017.8 |
| 20260506072028 | 54 | 261 | 3.0 | 8.0 | 0.00 | 0.03 | 0.00 | 88 | 1017.9 |
| 20260506071545 | 54 | 276 | 1.0 | 6.0 | 0.00 | 0.03 | 0.00 | 88 | 1017.8 |
| 20260506071030 | 54 | 273 | 1.0 | 4.0 | 0.00 | 0.03 | 0.00 | 88 | 1017.7 |
| 20260506070529 | 54 | 279 | 2.0 | 4.0 | 0.00 | 0.03 | 0.00 | 88 | 1017.6 |
| 20260506062029 | 53 | 263 | 2.0 | 8.0 | 0.00 | 0.03 | 0.03 | 87 | 1017.5 |
| 20260506061545 | 53 | 222 | 2.0 | 6.0 | 0.00 | 0.03 | 0.03 | 87 | 1017.4 |
| 20260506061029 | 53 | 251 | 2.0 | 5.0 | 0.00 | 0.03 | 0.03 | 87 | 1017.4 |
| 20260506060529 | 53 | 215 | 2.0 | 6.0 | 0.00 | 0.03 | 0.03 | 87 | 1017.3 |
| 20260506051029 | 53 | 217 | 3.0 | 6.0 | 0.00 | 0.03 | 0.03 | 87 | 1017.1 |
| 20260506050529 | 53 | 205 | 3.0 | 9.0 | 0.00 | 0.03 | 0.03 | 87 | 1017.0 |
| 20260506045029 | 53 | 194 | 2.0 | 7.0 | 0.00 | 0.03 | 0.03 | 87 | 1016.8 |
| 20260506044625 | 53 | 214 | 3.0 | 6.0 | 0.00 | 0.03 | 0.03 | 87 | 1016.8 |
| 20260506044031 | 54 | 234 | 3.0 | 6.0 | 0.00 | 0.03 | 0.03 | 87 | 1016.7 |
| 20260506043529 | 54 | 226 | 2.0 | 7.0 | 0.00 | 0.03 | 0.03 | 87 | 1016.7 |
| 20260506043046 | 54 | 256 | 2.0 | 7.0 | 0.00 | 0.03 | 0.03 | 87 | 1016.7 |
| 20260506042529 | 54 | 246 | 2.0 | 6.0 | 0.00 | 0.03 | 0.03 | 87 | 1016.7 |
| 20260506042028 | 54 | 239 | 3.0 | 6.0 | 0.00 | 0.03 | 0.03 | 87 | 1016.6 |
| 20260506041557 | 54 | 231 | 2.0 | 6.0 | 0.00 | 0.03 | 0.03 | 87 | 1016.5 |
| 20260506041030 | 54 | 225 | 3.0 | 7.0 | 0.00 | 0.03 | 0.03 | 87 | 1016.5 |
| 20260506040529 | 54 | 259 | 3.0 | 8.0 | 0.00 | 0.03 | 0.03 | 87 | 1016.4 |
| 20260506040042 | 54 | 220 | 2.0 | 8.0 | 0.00 | 0.03 | 0.03 | 86 | 1016.3 |
| 20260506035530 | 54 | 251 | 2.0 | 8.0 | 0.00 | 0.03 | 0.03 | 86 | 1016.2 |
| 20260506035029 | 54 | 209 | 3.0 | 8.0 | 0.00 | 0.03 | 0.03 | 86 | 1016.2 |
| 20260506034621 | 54 | 234 | 2.0 | 6.0 | 0.00 | 0.03 | 0.03 | 86 | 1016.2 |
| 20260506034029 | 54 | 228 | 2.0 | 7.0 | 0.00 | 0.03 | 0.03 | 86 | 1016.1 |
| 20260506033529 | 54 | 227 | 2.0 | 8.0 | 0.00 | 0.03 | 0.03 | 86 | 1016.1 |
| 20260506033039 | 54 | 219 | 3.0 | 8.0 | 0.00 | 0.03 | 0.03 | 86 | 1016.0 |
| 20260506032529 | 54 | 223 | 2.0 | 9.0 | 0.00 | 0.03 | 0.03 | 86 | 1015.9 |
| 20260506032029 | 54 | 240 | 3.0 | 9.0 | 0.00 | 0.03 | 0.03 | 86 | 1015.9 |
| 20260506031541 | 54 | 236 | 2.0 | 9.0 | 0.00 | 0.03 | 0.03 | 85 | 1015.9 |
| 20260506031032 | 54 | 217 | 3.0 | 6.0 | 0.00 | 0.03 | 0.03 | 85 | 1015.8 |
| 20260506030528 | 54 | 271 | 2.0 | 5.0 | 0.00 | 0.03 | 0.03 | 85 | 1015.7 |
| 20260506030043 | 55 | 218 | 2.0 | 6.0 | 0.00 | 0.03 | 0.03 | 85 | 1015.7 |
| 20260506025531 | 54 | 236 | 2.0 | 6.0 | 0.00 | 0.03 | 0.03 | 85 | 1015.7 |
| 20260506025028 | 55 | 259 | 2.0 | 7.0 | 0.00 | 0.03 | 0.03 | 84 | 1015.5 |
| 20260506024543 | 55 | 238 | 2.0 | 7.0 | 0.00 | 0.03 | 0.03 | 84 | 1015.5 |
| 20260506024028 | 55 | 233 | 2.0 | 7.0 | 0.00 | 0.03 | 0.03 | 84 | 1015.5 |
| 20260506023529 | 55 | 283 | 3.0 | 9.0 | 0.00 | 0.03 | 0.03 | 83 | 1015.4 |
| 20260506023101 | 56 | 246 | 2.0 | 9.0 | 0.00 | 0.03 | 0.03 | 83 | 1015.2 |
| 20260506022529 | 56 | 271 | 3.0 | 9.0 | 0.00 | 0.03 | 0.03 | 82 | 1015.2 |
| 20260506022029 | 56 | 255 | 3.0 | 8.0 | 0.00 | 0.03 | 0.03 | 82 | 1015.2 |
| 20260506021538 | 56 | 262 | 2.0 | 9.0 | 0.00 | 0.03 | 0.03 | 81 | 1015.2 |
| 20260506021029 | 57 | 276 | 3.0 | 9.0 | 0.00 | 0.03 | 0.03 | 82 | 1015.2 |
| 20260506020528 | 57 | 242 | 3.0 | 11.0 | 0.00 | 0.03 | 0.03 | 81 | 1015.3 |
| 20260506020039 | 57 | 281 | 4.0 | 12.0 | 0.00 | 0.03 | 0.03 | 80 | 1015.3 |
| 20260506015529 | 57 | 231 | 3.0 | 12.0 | 0.00 | 0.03 | 0.03 | 79 | 1015.3 |
| 20260506015031 | 58 | 255 | 2.0 | 9.0 | 0.00 | 0.03 | 0.03 | 80 | 1015.3 |
| 20260506014545 | 58 | 226 | 3.0 | 9.0 | 0.00 | 0.03 | 0.03 | 78 | 1015.3 |
| 20260506014028 | 58 | 217 | 3.0 | 11.0 | 0.00 | 0.03 | 0.03 | 78 | 1015.3 |
| 20260506013528 | 58 | 211 | 5.0 | 11.0 | 0.00 | 0.03 | 0.03 | 78 | 1015.3 |
| 20260506013044 | 58 | 268 | 3.0 | 11.0 | 0.00 | 0.03 | 0.03 | 78 | 1015.2 |
| 20260506012529 | 58 | 243 | 4.0 | 11.0 | 0.00 | 0.03 | 0.03 | 77 | 1015.3 |
| 20260506012029 | 58 | 311 | 3.0 | 11.0 | 0.00 | 0.03 | 0.03 | 76 | 1015.1 |
| 20260506011549 | 58 | 271 | 2.0 | 11.0 | 0.00 | 0.03 | 0.03 | 78 | 1015.2 |
| 20260506011029 | 58 | 198 | 3.0 | 11.0 | 0.00 | 0.03 | 0.03 | 77 | 1015.2 |
| 20260506010529 | 58 | 189 | 3.0 | 10.0 | 0.00 | 0.03 | 0.03 | 78 | 1015.1 |
| 20260506010051 | 58 | 296 | 6.0 | 11.0 | 0.00 | 0.03 | 0.03 | 77 | 1015.1 |
| 20260506005529 | 58 | 277 | 4.0 | 11.0 | 0.00 | 0.03 | 0.03 | 77 | 1015.1 |
| 20260506005029 | 59 | 303 | 5.0 | 11.0 | 0.00 | 0.03 | 0.03 | 76 | 1015.2 |
| 20260506004559 | 59 | 292 | 6.0 | 11.0 | 0.00 | 0.03 | 0.03 | 75 | 1015.0 |
| 20260506004029 | 60 | 285 | 3.0 | 9.0 | 0.00 | 0.03 | 0.03 | 76 | 1015.0 |
| 20260506003529 | 59 | 291 | 4.0 | 9.0 | 0.00 | 0.03 | 0.03 | 77 | 1015.0 |
| 20260506003102 | 59 | 223 | 4.0 | 11.0 | 0.00 | 0.03 | 0.03 | 77 | 1015.0 |